User: anonymous   Login
Location: Zagreb
(45.8000°N, 16.0000°E)
Time: 12:10:57
(UTC+02:00)
Language:

BlueWalker 3 - Orbit

View from above orbital plane
View from above orbital plane
View from above satellite
View from above satellite

Ground track
Ground track

The orbit data is extracted from the following two-line orbital elements,

1 53807U 22111AL  24149.68023692  .00004249  00000-0  17649-3 0  9995
2 53807  53.2367 283.5037 0009549  42.5395 317.6343 15.25938210 95258
Epoch (UTC): 28 May 2024 16:19:32
Eccentricity: 0.0009549
inclination: 53.2367°
perigee height: 481 km
apogee height: 494 km
right ascension of ascending node: 283.5037°
argument of perigee: 42.5395°
revolutions per day: 15.25938210
mean anomaly at epoch: 317.6343°
orbit number at epoch: 9525

The dashed part of the orbit path shows where the satellite is in the earth's shadow,  

DLR